This demonstration page uses our WeatherBlox Daily Observations layout. Learn more.

Left ArrowRight Arrow

44.89941, -97.11507

Hourly Observations for April 13, 2019

Temp ( °F °C ) Dew Point ( °F °C ) Humidity (%) Winds ( mph kmh ) Pressure ( in mb ) Visibility ( mi km ) Precip ( " mm )
12:04 am 00:04 Mostly Cloudy 28 -2.2 23 -5 81 81 WNW 14 22 29.91 1013 10 16 0.00 0.00
12:40 am 00:40 Mostly Cloudy 27 -2.8 23 -5 85 85 W 12 19 29.93 1014 10 16 0.00 0.00
12:53 am 00:53 Mostly Cloudy 27 -2.8 22 -5.6 81 81 W 12 19 29.89 1012 10 16 0.00 0.00
1:53 am 01:53 Cloudy 28 -2.2 23 -5 81 81 W 12 19 29.91 1013 10 16 0.00 0.00
2:53 am 02:53 Cloudy 28 -2.2 24 -4.4 85 85 WNW 13 20 29.93 1014 10 16 0.00 0.00
3:36 am 03:36 Cloudy 28 -2.2 25 -3.9 88 88 W 9 15 29.98 1015 10 16 0.00 0.00
3:46 am 03:46 Cloudy 28 -2.2 25 -3.9 88 88 WNW 9 15 29.98 1015 10 16 0.00 0.00
3:53 am 03:53 Cloudy 28 -2.2 25 -3.9 88 88 WNW 9 15 29.95 1014 10 16 0.00 0.00
4:06 am 04:06 Cloudy 28 -2.2 25 -3.9 88 88 W 10 17 29.99 1015 10 16 0.00 0.00
4:53 am 04:53 Cloudy 29 -1.7 26 -3.3 89 89 WNW 12 19 29.97 1015 10 16 0.00 0.03
5:30 am 05:30 Cloudy 28 -2.2 25 -3.9 88 88 WNW 12 19 30.03 1017 10 16 0.00 0.00
5:53 am 05:53 Mostly Cloudy 28 -2.2 25 -3.9 88 88 WNW 12 19 30.00 1016 10 16 0.00 0.00
6:07 am 06:07 Cloudy 28 -2.2 25 -3.9 88 88 WNW 8 13 30.04 1017 10 16 0.00 0.00
6:53 am 06:53 Partly Cloudy 27 -2.8 24 -4.4 89 89 WNW 9 15 30.02 1017 10 16 0.00 0.00
7:53 am 07:53 Sunny 25 -3.9 22 -5.6 88 88 WSW 13 20 30.08 1019 10 16 0.00 0.00
8:53 am 08:53 Sunny 28 -2.2 23 -5 81 81 WNW 12 19 30.10 1019 10 16 0.00 0.00
9:53 am 09:53 Sunny 30 -1.1 24 -4.4 79 79 NW 14 22 30.08 1019 10 16 0.00 0.00
10:53 am 10:53 Sunny 33 0.6 22 -5.6 64 64 NNW 14 22 30.09 1019 10 16 0.00 0.00
11:53 am 11:53 Sunny 34 1.1 22 -5.6 61 61 NNW 13 20 30.12 1020 10 16 0.00 0.00
12:53 pm 12:53 Sunny 34 1.1 21 -6.1 59 59 N 12 19 30.15 1021 10 16 0.00 0.00
1:53 pm 13:53 Sunny 36 2.2 22 -5.6 57 57 NW 7 11 30.18 1022 10 16 0.00 0.00
2:53 pm 14:53 Sunny 36 2.2 21 -6.1 55 55 WNW 7 11 30.19 1022 10 16 0.00 0.00
3:53 pm 15:53 Sunny 37 2.8 21 -6.1 52 52 WNW 8 13 30.17 1022 10 16 0.00 0.00
4:53 pm 16:53 Sunny 37 2.8 22 -5.6 54 54 WNW 8 13 30.15 1021 10 16 0.00 0.00
5:53 pm 17:53 Sunny 37 2.8 22 -5.6 54 54 NNW 8 13 30.14 1021 10 16 0.00 0.00
6:53 pm 18:53 Sunny 36 2.2 25 -3.9 64 64 WNW 6 9 30.15 1021 10 16 0.00 0.00
7:53 pm 19:53 Sunny 32 0 25 -3.9 75 75 W 8 13 30.15 1021 10 16 0.00 0.00
8:53 pm 20:53 Clear 28 -2.2 24 -4.4 85 85 W 5 7 30.16 1021 10 16 0.00 0.00
9:53 pm 21:53 Clear 29 -1.7 24 -4.4 82 82 Calm 30.14 1021 10 16 0.00 0.00
10:53 pm 22:53 Clear 26 -3.3 23 -5 88 88 Calm 30.14 1021 10 16 0.00 0.00
11:53 pm 23:53 Clear 23 -5 21 -6.1 92 92 S 3 6 30.13 1020 10 16 0.00 0.00

Powered by AerisWeather